{"data":{"norad_id":69263,"epoch":"2026-09-19T04:34:09.182784Z","epoch_age_seconds":140055,"freshness":"FRESH","line1":"1 69263U 26117AB  26262.19038406  .00015499  00000+0  46893-3 0  9992","line2":"2 69263  53.1570 160.0267 0001476  87.4984 272.6187 15.34397524 17463","mean_motion":15.34397524,"eccentricity":0.0001476,"inclination_deg":53.157,"raan_deg":160.0267,"arg_perigee_deg":87.4984,"mean_anomaly_deg":272.6187,"bstar":0.00046893,"rev_number":1746,"period_min":93.847909519958,"perigee_km":461.70089030512,"apogee_km":463.72030851647,"semimajor_km":6840.8475994108,"source":"CELESTRAK","updated_at":"2026-09-20T09:00:44.152824Z"}}